OBJECT C, 44854

Orbit data source: Space-Track

You're viewing an Uncataloged Satellite

Recently launched and/or uncataloged satellites may have evolving metadata. Metadata may include but not limited to: Owner, Maufacturer, Bus, Motor, and Mission.

OBJECT C, 44854 is a satellite in LEO that was launched on Wed, 11 Dec 2019 UTC via a PSLV-QL launch vehicle from the Sirharikota (SRI). Unknown objects in Earth's orbit typically refer to objects detected orbiting the Earth but have not yet been identified or cataloged. These objects could be anything from previously untracked satellites, spent rocket stages, debris from satellite collisions, or even natural meteoroids temporarily captured by Earth's gravity.

Loading next visibility...
Identifier
44854, 2019-089C
Orbit
LEO
Last TLE update
3 hours ago
Origin
Manufacturer
Herzliya
Mission
Operational Amateur Imaging
Bus & Motor
CUBESAT 3U, Unknown motor
Mass
4 kg wet, 4 kg dry
Launch date (UTC)
2019-12-11 (5 years ago)
Launch vehicle
PSLV-QL
Launch site
Sirharikota (SRI)
Object type
Unknown
Shape & HBR
Box, Unknown HBR
Radar Cross Section
0.035 m², Small (<0.1 m²)

Expand to show TLE details & history

TLE from 3 hours ago
0 OBJECT C
1 44854U 19089C   25129.22226991  .00046464  00000-0  98879-3 0  9992
2 44854  36.9434 194.1800 0000561  11.1111 348.9657 15.43979467298092
Epoch: 2025-05-09T05:20Z
Definitive object data (Epoch: 2025-05-09T05:20:04.12Z)
Latitude
-0.00001°
Longitude
-113.11869°
Altitude
433.108 km
Speed
7.654 km/s
True Right ascension
12h 56m 43s
True Declination
0° 00' 00"
Sunlit
Object was in full shadow at TLE epoch
Visualization TLE readout
Latitude
29.72507°
Longitude
-64.9718°
Altitude
433.919 km
Speed
7.657 km/s
Apparent Right ascension
13h 36m 54s
Apparent Declination
-27° 01' 54"
Sunlit
Object is in full shadow
Visualization observer readout
Local Sidereal Time
16:49:47
Azimuth
222.322° SW
Elevation
9.415°
Doppler factor
1
Orbital elements
Apogee altitude
437.728 km
Perigee altitude
436.963 km
Semi-major axis
6,815.482 km
Eccentricity
0.0000561
Inclination
36.9434°
RAAN
194.18°
Arg. of periapsis
11.1111°
True anomaly
348.96447°
Mean anomaly
348.9657°
Eccentric anomaly
348.96508°
Mean motion
3.85743 °/min
BSTAR
0.00098879
Orbital period
93.33 mins
Loading maneuver chart data...
Loading SW <> Apogee altitude chart data...
Loading historical data...
Loading historical data...
Loading historical data...
Loading historical data...
Loading historical data...
Loading historical data...
Loading historical data...

OBJECT C Visibility forecast

Observer location: undefined°, undefined°

Span
Click to sort rows by Start time (UTC) header in descending order
Start Az.
Max El. time (UTC)
Max El. Az.
Max El.
End time (UTC)
End Az.
5 mins2025-05-09 08:41:35.012Z211.82° SW2025-05-09 08:43:35.012Z165.553° S24.24°2025-05-09 08:46:35.012Z102.957° ESE
5 mins2025-05-09 10:19:35.012Z245.298° WSW2025-05-09 10:21:35.012Z183.643° SSW37.278°2025-05-09 10:24:35.012Z102.811° ESE
5 mins2025-05-09 11:57:35.012Z252.679° W2025-05-09 11:59:35.012Z199.185° SSW31.272°2025-05-09 12:02:35.012Z125.809° SE
|